Regional Weather Roundup
Issued by NWS

Home | Current Version | Previous Version | Text Only | Print | Product List | Glossary Off
Versions: 1 2 3 4 5 6 7 8 9 10 11 12 13 14 15 16 17 18 19 20 21 22 23 24 25 26 27 28 29 30 31 32 33 34 35 36 37 38 39 40 41 42 43 44 45 46 47 48 49 50

000
ASUS43 KDTX 181310
RWRMI
MICHIGAN HOURLY REGIONAL WEATHER ROUNDUP
NATIONAL WEATHER SERVICE DETROIT/PONTIAC MI
800 AM EST THU DEC 18 2014

NOTE: "FAIR" INDICATES FEW OR NO CLOUDS BELOW 12,000 FEET WITH NO
SIGNIFICANT WEATHER AND/OR OBSTRUCTION TO VISIBILITY.

MIZ047>049-052>055-059>063-066>070-074>076-081>083-181400-
SOUTHEAST LOWER MICHIGAN

CITY           SKY/WX    TMP DP  RH WIND       PRES   REMARKS
ADRIAN         CLOUDY    29  23  78 W7        30.21S WCI  22
ALMA           CLOUDY    30  27  89 NW5       30.19S WCI  25
ANN ARBOR      CLOUDY    30  23  75 W8        30.19S WCI  22
BAD AXE        CLOUDY    26  24  90 N7        30.18R WCI  19
CARO           CLOUDY    29  26  89 N7        30.17S WCI  22
DETROIT CITY   CLOUDY    32  25  75 W6        30.19S WCI  26
DETROIT        CLOUDY    30  23  75 W9        30.21R WCI  22
FLINT          CLOUDY    31  26  82 W8        30.18R WCI  23
GROSSE ILE     CLOUDY    30  25  80 W5        30.19S WCI  25
HILLSDALE      CLOUDY    28  25  89 W5        30.18F WCI  23
HOWELL         CLOUDY    29  26  87 W6        30.17S WCI  23

CITY           SKY/WX    TMP DP  RH WIND       PRES   REMARKS
JACKSON        CLOUDY    28  23  81 W6        30.18S WCI  22
LAMBERTVILLE   CLOUDY    32  25  74 W5        30.21F WCI  27
LANSING        CLOUDY    30  25  81 W7        30.19S WCI  23
LAPEER         LGT SNOW  29  28  96 NW3       30.17S
MASON          CLOUDY    29  24  83 W6        30.18F WCI  23
MONROE         CLOUDY    30  25  80 W3        30.19S
MT. CLEMENS    FLURRIES  30  30  99 W7        30.17R WCI  23
PONTIAC        CLOUDY    29  24  82 W7        30.16S WCI  22
PORT HOPE        N/A     29  24  82 N6        30.15R WCI  23
PORT HURON     CLOUDY    28  28 100 NW3       30.18R
TRI CITIES     CLOUDY    31  26  82 N7        30.19S WCI  24
TROY           CLOUDY    32  28  83 W3        30.20R
SAGINAW HB     CLOUDY    32  28  86 NW7       30.18S WCI  26
$$
MIZ043>046-050>051-056>058-064>065-071>073-077>080-181400-
SOUTHWEST LOWER MICHIGAN

CITY           SKY/WX    TMP DP  RH WIND       PRES   REMARKS
BATTLE CREEK   CLOUDY    30  23  75 W8        30.19F WCI  22
BENTON HARBOR  CLOUDY    28  23  81 W6        30.25R WCI  22
BIG RAPIDS     CLOUDY    29  27  92 N5        30.17S WCI  24
COLDWATER      CLOUDY    28  24  84 W6        30.20S WCI  22
FREMONT        LGT SNOW  30  29  97 N5        30.19S WCI  25
HOLLAND        CLOUDY    33  25  72 W3        30.22S
GRAND RAPIDS   CLOUDY    30  26  85 W8        30.19F WCI  22
IONIA          CLOUDY    31  28  90 W8        30.18S WCI  23
KALAMAZOO      CLOUDY    29  23  78 W8        30.21F WCI  21
LUDINGTON      CLOUDY    31  28  89 N5        30.21S WCI  26
MARSHALL       CLOUDY    28  24  84 W5        30.18F WCI  23
MOUNT PLEASANT CLOUDY    30  26  83 NW3       30.18S
MUSKEGON       FLURRIES  33  28  81 NW7       30.21S WCI  27
SOUTH HAVEN    CLOUDY    31  25  76 W5        30.24R WCI  27
$$
MIZ016>042-181400-
NORTHERN LOWER MICHIGAN

CITY           SKY/WX    TMP DP  RH WIND       PRES   REMARKS
ALPENA         CLOUDY    24  20  84 N10       30.18F WCI  14
BEAVER ISLAND  CLEAR     21  16  82 NE8       30.24R WCI  11
BELLAIRE       CLOUDY    26  22  85 NE9       30.21R WCI  17
CADILLAC       CLOUDY    26  23  88 NW8       30.16R WCI  18
CHARLEVOIX     CLOUDY    25  22  88 NE10G16   30.24S WCI  14
FRANKFORT      CLOUDY    28  26  89 N5        30.22R WCI  23
GAYLORD        CLOUDY    20  19  96 VRB5      30.15S WCI  13
GRAYLING       CLOUDY    23  21  94 N5        30.17R WCI  17
HARBOR SPRINGS PTCLDY    21  16  83 NE3       30.21S
HOUGHTON LAKE  CLOUDY    23  21  92 N8        30.17R WCI  14
MANISTEE       CLOUDY    28  23  80 NE3       30.22S
OSCODA         CLOUDY    24  21  89 N12       30.17S WCI  13
PELLSTON       CLEAR     17  13  84 N8        30.23S WCI   7
ROGERS CITY    CLOUDY    23  20  89 N13       30.22S WCI  11
TRAVERSE CITY  CLOUDY    28  23  81 N12       30.20R WCI  18
$$
MIZ007>008-015-181400-
EASTERN UPPER MICHIGAN

CITY           SKY/WX    TMP DP  RH WIND       PRES   REMARKS
KINROSS        PTCLDY    10   9  92 N6        30.25S WCI   1
MACKINAC ISLAN PTCLDY    17  13  86 N13       30.24R WCI   3
NEWBERRY       CLEAR     14  12  94 N7        30.25R WCI   4
S. S. MARIE    PTCLDY    12  -1  56 N5        30.23F WCI   4
MUNISING         N/A     27  18  69 NE10      30.28R WCI  17
$$
MIZ004>006-011>014-085-181400-
CENTRAL UPPER MICHIGAN

CITY           SKY/WX    TMP DP  RH WIND       PRES   REMARKS
MANISTIQUE     CLEAR     18  17  93 N8        30.25S WCI   8
ESCANABA       PTCLDY    21  16  79 N5        30.26S WCI  15
MENOMINEE      CLOUDY    27  19  74 N9        30.26S WCI  17
SAWYER-GWINN   CLOUDY    23  19  86 N6        30.24S WCI  16
$$
MIZ001>003-009>011-084-181400-
WESTERN UPPER MICHIGAN

CITY           SKY/WX    TMP DP  RH WIND       PRES   REMARKS
IRON MOUNTAIN  MOCLDY    21  16  81 NW7       30.25R WCI  12
HOUGHTON       PTCLDY     1  -4  79 NW6       30.29R WCI -10
COPPER HARBOR    N/A     27  18  69 E9        30.31F WCI  18
IRONWOOD       CLOUDY    18  16  93 E5        30.26S WCI  11
$$

ABBREVIATIONS USED IN REMARKS
   TC - TEMPERATURE IN CELSIUS
  WCI - WIND CHILL INDEX
   HX - HEAT INDEX
  VSB - VISIBILITY




USA.gov is the U.S. government's official web portal to all federal, state and local government web resources and services.